[[{"header":{"parameterUnit":"m.s-1","parameterCategory":1,"la1":30.2991,"la2":30.254,"lo1":-89.0895,"lo2":-89.0444,"dy":0.0017,"dx":0.0017,"nx":28,"ny":28,"refTime":"2025-03-17T03:00:00:Z","depth":0,"parameterNumber":2,"parameterNumberName":"U-component_of_WINDS"},"data":[0,0,0,0,0,0,0,0,0,0,0,0,0,0,0,0,0,0,0,0,0,0,0,0,0,0,0,0,0,0,0,0,0,0,0,0,0,0,0,0,0,0,0,0,0,0,0,0,0,0,0,0,0,0,0,0,0,0,-0.6358,-0.636,0,-0.6495,-0.6496,-0.6498,-0.6581,-0.6582,-0.6582,-0.6583,-0.6722,-0.6725,-0.6729,0,0,0,0,0,0,0,0,0,0,0,0,0,-0.6171,-0.6174,-0.6358,-0.636,-0.6362,-0.6494,-0.6496,-0.6498,-0.6581,-0.6582,-0.6582,-0.6583,-0.6721,-0.6725,-0.6729,0,0,0,0,0,0,0,0,0,0,0,0,0,-0.6274,-0.6175,-0.6358,-0.6419,-0.6426,-0.6494,-0.6496,-0.6499,-0.6581,-0.6582,-0.6582,-0.6583,-0.672,-0.6725,-0.673,-0.6748,0,0,-0.6745,-0.6747,0,0,0,0,0,0,0,0,-0.6268,-0.6281,-0.6409,-0.6415,-0.6423,-0.6522,-0.6482,-0.6582,-0.6581,-0.6522,-0.6583,-0.6583,-0.6655,-0.6665,-0.669,-0.6754,-0.676,-0.6745,-0.6748,-0.675,-0.6752,0,0,0,0,0,0,0,-0.6261,-0.6276,-0.6412,-0.641,-0.6419,-0.644,-0.6456,-0.6501,-0.6583,-0.6527,-0.6534,-0.6549,-0.6659,-0.6684,-0.6693,-0.6762,-0.6745,-0.675,-0.6753,-0.6755,-0.6849,-0.6849,0,0,0,0,0,0,-0.6244,-0.6269,-0.6408,-0.6416,-0.6346,-0.6443,-0.646,-0.6489,-0.6583,-0.6598,-0.6548,-0.6552,-0.6676,-0.6687,-0.6699,-0.6726,-0.675,-0.6755,-0.6758,-0.685,-0.6849,-0.6849,0,0,0,0,0,0,-0.624,-0.6256,-0.6403,-0.6345,-0.6365,-0.6446,-0.6478,-0.6492,-0.6517,-0.6599,-0.6614,-0.6559,-0.6677,-0.6692,-0.6735,-0.6732,-0.6757,-0.6762,-0.685,-0.685,-0.6849,-0.6781,0,0,0,0,0,0,-0.6234,-0.6254,-0.6261,-0.6344,-0.6368,-0.6436,-0.6477,-0.6494,-0.6526,-0.6532,-0.6613,-0.6627,-0.6678,-0.6727,-0.674,-0.674,-0.6766,-0.6851,-0.685,-0.6849,-0.6784,-0.6778,-0.6773,0,0,0,0,0,-0.6227,-0.6236,-0.6261,-0.6277,-0.6378,-0.6436,-0.6449,-0.6508,-0.6525,-0.6533,-0.6586,-0.6624,-0.6731,-0.6731,-0.6746,-0.6747,-0.6851,-0.685,-0.6849,-0.6786,-0.6779,-0.6773,0,0,0,0,0,0,-0.615,-0.6248,-0.6277,-0.6313,-0.6365,-0.645,-0.6462,-0.6499,-0.6547,-0.6552,-0.6623,-0.664,-0.6677,-0.6717,-0.6715,-0.677,-0.6796,-0.6797,-0.6742,-0.6736,-0.6731,-0.6721,-0.677,0,0,0,0,0,-0.6138,-0.6176,-0.6259,-0.6283,-0.6308,-0.638,-0.6407,-0.6448,-0.6506,-0.6528,-0.6584,-0.6638,-0.6684,-0.6713,-0.6759,-0.6791,-0.681,-0.6799,-0.6793,-0.6789,-0.6789,-0.6809,-0.6806,-0.6845,-0.6845,-0.6845,0,0,-0.6112,-0.617,-0.619,-0.6269,-0.6315,-0.6353,-0.6398,-0.6437,-0.6466,-0.6534,-0.6579,-0.6621,-0.6687,-0.6724,-0.6743,-0.6758,-0.6783,-0.6787,-0.6783,-0.6786,-0.6808,-0.6804,-0.6801,-0.6845,-0.6845,-0.6845,0,0,-0.6084,-0.6132,-0.6157,-0.6202,-0.6271,-0.6319,-0.6325,-0.6404,-0.6435,-0.6481,-0.6533,-0.6569,-0.6646,-0.6691,-0.6723,-0.6714,-0.6751,-0.6727,-0.6699,-0.6718,-0.6714,-0.6712,-0.6709,-0.6707,-0.6728,-0.6727,-0.6727,0,-0.6043,-0.6103,-0.6166,-0.6201,-0.6235,-0.6299,-0.6326,-0.6366,-0.6446,-0.6468,-0.6484,-0.6583,-0.6631,-0.668,-0.6678,-0.6702,-0.6712,-0.6718,-0.671,-0.6708,-0.6707,-0.6704,-0.6703,-0.6724,-0.6724,-0.6725,-0.6725,0,-0.6049,-0.609,-0.6102,-0.6178,-0.6213,-0.6244,-0.6312,-0.6341,-0.6379,-0.6425,-0.6471,-0.6532,-0.6592,-0.6607,-0.6645,-0.6662,-0.6669,-0.6696,-0.6723,-0.6698,-0.6697,-0.6697,-0.6719,-0.672,-0.6721,-0.6722,0,0,-0.5976,-0.6087,-0.609,-0.6126,-0.6207,-0.6239,-0.6274,-0.6333,-0.6356,-0.6409,-0.644,-0.6504,-0.653,-0.6567,-0.6611,-0.6627,-0.6616,-0.6653,-0.6655,-0.6644,-0.6639,-0.6617,-0.6615,-0.6641,-0.6641,-0.6642,-0.6633,0,-0.596,-0.6024,-0.6083,-0.6126,-0.6164,-0.6226,-0.6256,-0.6309,-0.6353,-0.6393,-0.6443,-0.6487,-0.6518,-0.6541,-0.656,-0.6613,-0.6616,-0.6614,-0.6671,-0.6672,-0.6652,-0.6615,-0.6592,-0.6581,-0.6633,-0.6633,-0.6633,0,-0.595,-0.6001,-0.6047,-0.6125,-0.6144,-0.6169,-0.6229,-0.6265,-0.6327,-0.6359,-0.64,-0.6446,-0.6485,-0.6509,-0.6564,-0.6562,-0.6589,-0.6618,-0.6619,-0.6626,-0.665,-0.6621,-0.6579,-0.6577,-0.6633,-0.6633,-0.6633,0,-0.5891,-0.5972,-0.6011,-0.6039,-0.6131,-0.6147,-0.6186,-0.6249,-0.6281,-0.6333,-0.6354,-0.641,-0.644,-0.6483,-0.6543,-0.6554,-0.6592,-0.662,-0.6619,-0.6618,-0.6624,-0.6623,-0.6586,-0.6641,-0.6641,-0.6641,-0.6641,0,-0.5867,-0.5893,-0.5986,-0.6009,-0.6041,-0.6108,-0.6137,-0.6182,-0.6237,-0.6271,-0.6328,-0.6358,-0.6436,-0.6476,-0.6523,-0.6562,-0.6575,-0.6602,-0.6614,-0.6597,-0.6593,-0.6615,-0.6617,-0.6641,-0.6641,-0.6641,-0.6641,0,-0.5807,-0.587,-0.5916,-0.5999,-0.6021,-0.604,-0.6112,-0.6138,-0.6186,-0.6228,-0.6242,-0.6317,-0.6367,-0.6431,-0.6502,-0.6534,-0.6567,-0.6586,-0.6546,-0.6553,-0.6549,-0.6548,-0.6524,-0.6525,-0.6579,-0.6578,-0.6578,0,-0.5787,-0.5809,-0.5895,-0.5922,-0.5959,-0.6001,-0.6034,-0.6102,-0.6134,-0.6206,-0.6223,-0.6278,-0.6325,-0.6402,-0.6463,-0.6518,-0.6538,-0.6526,-0.6547,-0.6529,-0.6538,-0.6536,-0.6538,-0.6521,-0.652,-0.6519,-0.6518,0,-0.5746,-0.5776,-0.5821,-0.5878,-0.5916,-0.5964,-0.6014,-0.6033,-0.6111,-0.6144,-0.6196,-0.6233,-0.6305,-0.6358,-0.6421,-0.6462,-0.6503,-0.6512,-0.6514,-0.6496,-0.6472,-0.6485,-0.6532,-0.6512,-0.6512,-0.6513,-0.6513,-0.6513,-0.5705,-0.5728,-0.5792,-0.5841,-0.5886,-0.5932,-0.596,-0.6012,-0.6057,-0.612,-0.6158,-0.6208,-0.6271,-0.6359,-0.6398,-0.6439,-0.6454,-0.6458,-0.6459,-0.6459,-0.6453,-0.6466,-0.645,-0.6451,-0.6451,-0.6451,-0.6451,0,-0.5666,-0.5711,-0.5755,-0.5824,-0.5863,-0.5899,-0.5957,-0.5987,-0.6031,-0.6085,-0.6131,-0.6191,-0.6243,-0.6309,-0.6366,-0.6386,-0.6406,-0.6398,-0.6397,-0.6406,-0.6436,-0.6428,-0.6381,-0.6381,-0.6381,-0.6381,-0.6381,-0.6381,-0.5651,-0.569,-0.5728,-0.5791,-0.5836,-0.5886,-0.5916,-0.5959,-0.6003,-0.6067,-0.6111,-0.6154,-0.6213,-0.6275,-0.6325,-0.6343,-0.6361,-0.6348,-0.6371,-0.6398,-0.6404,-0.641,-0.6403,-0.6351,-0.6351,-0.6338,-0.6338,-0.6338]},{"header":{"parameterUnit":"m.s-1","parameterCategory":1,"la1":30.2991,"la2":30.254,"lo1":-89.0895,"lo2":-89.0444,"dy":0.0017,"dx":0.0017,"nx":28,"ny":28,"refTime":"2025-03-17T03:00:00:Z","depth":0,"parameterNumber":3,"parameterNumberName":"V-component_of_WINDS"},"data":[0,0,0,0,0,0,0,0,0,0,0,0,0,0,0,0,0,0,0,0,0,0,0,0,0,0,0,0,0,0,0,0,0,0,0,0,0,0,0,0,0,0,0,0,0,0,0,0,0,0,0,0,0,0,0,0,0,0,-0.0559,-0.056,0,-0.0627,-0.0628,-0.0629,-0.066,-0.066,-0.0659,-0.0659,-0.0734,-0.0736,-0.0738,0,0,0,0,0,0,0,0,0,0,0,0,0,-0.046,-0.0462,-0.0559,-0.056,-0.0561,-0.0627,-0.0628,-0.0629,-0.066,-0.066,-0.0659,-0.0659,-0.0733,-0.0736,-0.0738,0,0,0,0,0,0,0,0,0,0,0,0,0,-0.0513,-0.0463,-0.0559,-0.0584,-0.0587,-0.0627,-0.0628,-0.0629,-0.066,-0.066,-0.0659,-0.0659,-0.0732,-0.0735,-0.0739,-0.076,0,0,-0.0748,-0.0749,0,0,0,0,0,0,0,0,-0.051,-0.0517,-0.0579,-0.0582,-0.0586,-0.0635,-0.0621,-0.0673,-0.066,-0.0632,-0.0659,-0.0659,-0.0701,-0.0707,-0.072,-0.0764,-0.0767,-0.0748,-0.075,-0.0752,-0.0752,0,0,0,0,0,0,0,-0.0507,-0.0514,-0.0586,-0.058,-0.0584,-0.0593,-0.0601,-0.0631,-0.0667,-0.0635,-0.0637,-0.0644,-0.0703,-0.0717,-0.0722,-0.0768,-0.0748,-0.0751,-0.0753,-0.0754,-0.0834,-0.0834,0,0,0,0,0,0,-0.0498,-0.0511,-0.0584,-0.0588,-0.0547,-0.0595,-0.0603,-0.0619,-0.0667,-0.0674,-0.0644,-0.0645,-0.0712,-0.0719,-0.0725,-0.0754,-0.0751,-0.0754,-0.0756,-0.0833,-0.0834,-0.0834,0,0,0,0,0,0,-0.0496,-0.0504,-0.0581,-0.055,-0.0561,-0.0597,-0.0614,-0.0621,-0.0635,-0.0674,-0.0681,-0.0652,-0.0712,-0.0721,-0.0751,-0.0757,-0.0756,-0.0759,-0.0833,-0.0833,-0.0834,-0.0811,0,0,0,0,0,0,-0.0493,-0.0503,-0.0511,-0.055,-0.0562,-0.0605,-0.0615,-0.0622,-0.0639,-0.0641,-0.0683,-0.0689,-0.0713,-0.0746,-0.0754,-0.0761,-0.0761,-0.0833,-0.0833,-0.0834,-0.0811,-0.0811,-0.081,0,0,0,0,0,-0.0489,-0.0503,-0.0511,-0.052,-0.0572,-0.0605,-0.0612,-0.0637,-0.064,-0.0648,-0.0673,-0.0688,-0.0755,-0.0749,-0.0758,-0.0766,-0.0832,-0.0833,-0.0834,-0.0812,-0.0811,-0.081,0,0,0,0,0,0,-0.0465,-0.0508,-0.0518,-0.0544,-0.057,-0.061,-0.0621,-0.0635,-0.0662,-0.0663,-0.0695,-0.0704,-0.0732,-0.0752,-0.0745,-0.079,-0.0795,-0.0797,-0.0775,-0.0775,-0.0774,-0.0769,-0.0764,0,0,0,0,0,-0.0462,-0.0484,-0.0521,-0.0541,-0.0553,-0.0585,-0.06,-0.0617,-0.0646,-0.0658,-0.0685,-0.0714,-0.0742,-0.0759,-0.0787,-0.0815,-0.0825,-0.0825,-0.0824,-0.0823,-0.0825,-0.0842,-0.0842,-0.0836,-0.0836,-0.0836,0,0,-0.0458,-0.0484,-0.0496,-0.0537,-0.0559,-0.0582,-0.0594,-0.0618,-0.0636,-0.0662,-0.0692,-0.0713,-0.0748,-0.0777,-0.0791,-0.0795,-0.0829,-0.0824,-0.0823,-0.0825,-0.0842,-0.0843,-0.0843,-0.0836,-0.0836,-0.0836,0,0,-0.0461,-0.0483,-0.0501,-0.0523,-0.0556,-0.0577,-0.0581,-0.0619,-0.0633,-0.0664,-0.0684,-0.0706,-0.0753,-0.0777,-0.0795,-0.0807,-0.0822,-0.0815,-0.0811,-0.0827,-0.0828,-0.0828,-0.0833,-0.0835,-0.0817,-0.0817,-0.0817,0,-0.0452,-0.0485,-0.051,-0.0532,-0.055,-0.0573,-0.0593,-0.0613,-0.0654,-0.0667,-0.067,-0.0729,-0.0754,-0.0789,-0.0791,-0.0805,-0.0812,-0.0811,-0.0825,-0.0826,-0.0827,-0.0832,-0.0834,-0.0816,-0.0816,-0.0816,-0.0816,0,-0.0472,-0.0495,-0.0507,-0.0544,-0.0563,-0.0584,-0.0613,-0.063,-0.0645,-0.0666,-0.0697,-0.0728,-0.0762,-0.0771,-0.0787,-0.0809,-0.081,-0.0819,-0.0825,-0.0826,-0.0832,-0.0834,-0.0814,-0.0815,-0.0815,-0.0815,0,0,-0.0462,-0.0512,-0.0516,-0.0533,-0.0571,-0.059,-0.0613,-0.0645,-0.0659,-0.0686,-0.0707,-0.0746,-0.0754,-0.0774,-0.0793,-0.0807,-0.0815,-0.0814,-0.0816,-0.0814,-0.0842,-0.0835,-0.0837,-0.0825,-0.0825,-0.0826,-0.0839,0,-0.0471,-0.0511,-0.0533,-0.0565,-0.0587,-0.0609,-0.0629,-0.0656,-0.0676,-0.0699,-0.0723,-0.0749,-0.0758,-0.077,-0.0785,-0.0811,-0.0821,-0.081,-0.0846,-0.0847,-0.0837,-0.084,-0.0833,-0.0844,-0.0841,-0.0842,-0.0842,0,-0.0487,-0.0512,-0.0544,-0.058,-0.059,-0.0607,-0.0638,-0.066,-0.0691,-0.0705,-0.0727,-0.0746,-0.0772,-0.0775,-0.0813,-0.0805,-0.0821,-0.0836,-0.0837,-0.0842,-0.0845,-0.0845,-0.0848,-0.085,-0.0845,-0.0845,-0.0845,0,-0.0476,-0.0519,-0.0544,-0.0558,-0.06,-0.0611,-0.063,-0.066,-0.0678,-0.0706,-0.0718,-0.0749,-0.0766,-0.079,-0.0817,-0.0817,-0.0853,-0.0858,-0.0866,-0.0865,-0.0873,-0.0872,-0.0879,-0.0882,-0.0882,-0.0882,-0.0882,0,-0.0484,-0.0503,-0.054,-0.0555,-0.0578,-0.0604,-0.0627,-0.0647,-0.0674,-0.0695,-0.0717,-0.0737,-0.0771,-0.0795,-0.0817,-0.0845,-0.0853,-0.0866,-0.0871,-0.0864,-0.0862,-0.0875,-0.0875,-0.0883,-0.0883,-0.0883,-0.0883,0,-0.0476,-0.0501,-0.053,-0.0567,-0.0577,-0.0592,-0.0625,-0.0641,-0.0662,-0.0689,-0.0697,-0.0731,-0.0761,-0.079,-0.083,-0.0845,-0.0873,-0.088,-0.0862,-0.0865,-0.0872,-0.0871,-0.0887,-0.0891,-0.0891,-0.0891,-0.0891,0,-0.048,-0.0495,-0.0533,-0.0547,-0.0565,-0.0588,-0.0606,-0.0633,-0.0651,-0.0687,-0.07,-0.0731,-0.0757,-0.0804,-0.0834,-0.0865,-0.0873,-0.0877,-0.0878,-0.0871,-0.0874,-0.0873,-0.0875,-0.0876,-0.0876,-0.0876,-0.0876,0,-0.0483,-0.0494,-0.0518,-0.0546,-0.0566,-0.059,-0.0615,-0.0627,-0.0659,-0.0678,-0.0708,-0.0728,-0.0769,-0.08,-0.0834,-0.0855,-0.0872,-0.0875,-0.0879,-0.0872,-0.0861,-0.0867,-0.086,-0.0875,-0.0875,-0.0875,-0.0875,-0.0875,-0.0481,-0.0496,-0.0525,-0.0551,-0.0572,-0.0595,-0.0612,-0.0635,-0.0659,-0.0693,-0.0708,-0.0739,-0.077,-0.0818,-0.0838,-0.0864,-0.0868,-0.0873,-0.0874,-0.0875,-0.0874,-0.0856,-0.087,-0.087,-0.087,-0.087,-0.087,0,-0.0486,-0.0505,-0.0529,-0.0562,-0.0583,-0.0594,-0.0623,-0.064,-0.0666,-0.0693,-0.0717,-0.0752,-0.0782,-0.0814,-0.0846,-0.086,-0.0868,-0.0868,-0.0867,-0.0872,-0.0868,-0.0862,-0.086,-0.086,-0.086,-0.086,-0.086,-0.086,-0.0491,-0.0516,-0.0531,-0.0568,-0.0588,-0.0616,-0.0631,-0.0653,-0.0674,-0.0711,-0.0736,-0.0755,-0.0785,-0.0819,-0.0848,-0.0857,-0.0868,-0.0865,-0.0876,-0.0872,-0.0872,-0.0873,-0.0867,-0.0867,-0.0867,-0.0878,-0.0878,-0.0878]}]]